Weather Roundup
Issued by NWS

Home | Current Version | Previous Version | Graphics & Text | Print | Product List | Glossary Off
Versions: 1 2 3 4 5 6 7 8 9 10 11 12 13 14 15 16 17 18 19 20 21 22 23 24 25 26 27 28 29 30 31 32 33 34 35 36 37 38 39 40 41 42 43 44 45 46 47 48 49 50

000
NZUS93 KARX 300710
HRRWXR

CURRENT HOURLY OBSERVATIONS ACROSS
MUCH OF THE UPPER MISSISSIPPI VALLEY
NATIONAL WEATHER SERVICE LA CROSSE WI
200 AM CDT SUN AUG 30 2015


...SOUTHEAST MINNESOTA...


CITY           SKY/WX    TMP DP  RH WIND       PRES   REMARKS
ROCHESTER      CLEAR     59  58  96 S7        30.04F
ROCHESTER/MAYO FAIR      62  62 100 SE6       30.04F
WINONA         CLEAR     59  57  94 CALM      30.04F
AUSTIN         CLEAR     63  61  94 S5        30.03F
ALBERT LEA     FOG       63  61  94 CALM      30.03F VSB 3/4
DODGE CENTER   PTCLDY    61  59  94 S6        30.03F
PRESTON        CLEAR     58  57  96 S5        30.06S FOG
OWATONNA       CLOUDY    63  61  94 S6        30.02F FOG
FARIBAULT      CLOUDY    61  61 100 S6        30.02F FOG
$$

...ELSEWHERE IN MINNESOTA...


CITY           SKY/WX    TMP DP  RH WIND       PRES   REMARKS
MINNEAPOLIS    MOCLDY    63  62  97 S5        30.00F FOG
INTNL FALLS    CLEAR     64  62  93 VRB6      29.87F
DULUTH         CLEAR     63  60  90 SW10      29.96F
RED WING       CLEAR     63  61  94 SE3       30.01F
REDWOOD FALLS  MOCLDY    61  60  97 S8        29.97F
MANKATO        CLEAR     59  55  88 S7        30.01S
WORTHINGTON    CLOUDY    61  57  88 S10       30.02S
FAIRMONT       MOCLDY    61  55  82 S10       30.01F
$$

...SOUTHWEST WISCONSIN...


CITY           SKY/WX    TMP DP  RH WIND       PRES   REMARKS
LA CROSSE      CLEAR     60  59  96 SE3       30.03F
PRAIRIE DU CHI CLEAR     63  61  94 CALM      30.04S
BOSCOBEL       CLOUDY    65  63  93 CALM      30.05F
LONE ROCK      CLOUDY    64  63  96 CALM      30.05F
PLATTEVILLE    CLOUDY    67  61  81 CALM      30.05F
FORT MC COY    CLOUDY    61  59  92 CALM      30.06S
CAMP DOUGLAS   CLOUDY    63  63 100 CALM      30.05S
VIROQUA        PTSUNNY   61  61  99 CALM      30.05F
WIS DELLS      FOG       60  58  94 CALM      30.05S VSB<1/4
$$

...ELSEWHERE IN WISCONSIN...


CITY           SKY/WX    TMP DP  RH WIND       PRES   REMARKS
MILWAUKEE      FOG       62  61  96 N3        30.04S VSB 1/2
MADISON        CLOUDY    64  62  93 CALM      30.03F FOG
GREEN BAY      FOG       57  56  96 CALM      30.05F VSB 1/4
EAU CLAIRE     CLEAR     60  58  92 CALM      30.02F
BLACK RVR FLS  FOG       56  56 100 CALM      30.04F VSB<1/4
MEDFORD        FOG       53  53 100 CALM      30.06S VSB 1/4
WAUSAU         FOG       54  54 100 E3        30.05S VSB 1/2
WIS RAPIDS     FOG       59  57  93 CALM      30.06F VSB 1/4
MARSHFIELD     FOG       55  52  89 CALM      30.06S VSB 1/4
RICE LAKE      CLEAR     59  57  95 SE5       30.04S FOG
$$

...NORTHEAST IOWA...


CITY           SKY/WX    TMP DP  RH WIND       PRES   REMARKS
DECORAH        CLOUDY    61  61 100 CALM      30.05S
MASON CITY     FOG       58  58 100 S3        30.05F VSB 1/4
CHARLES CITY   FOG       59  59 100 S3        30.05F VSB 1/2
OELWEIN        CLEAR     57  57 100 SE3       30.05F FOG
$$

...ELSEWHERE IN IOWA...


CITY           SKY/WX    TMP DP  RH WIND       PRES   REMARKS
DES MOINES     PTCLDY    66  62  87 SE3       30.04F
IOWA CITY      CLOUDY    63  62  97 CALM      30.05S
FORT DODGE     CLOUDY    63  59  88 CALM      30.06R
$$

...NORTHERN ILLINOIS...


CITY           SKY/WX    TMP DP  RH WIND       PRES   REMARKS
CHICAGO-OHARE  CLOUDY    65  64  97 CALM      30.03S FOG
CHICAGO-MIDWAY CLOUDY    67  64  90 N7        30.02S FOG
MOLINE         FOG       60  59  96 CALM      30.04S VSB 1/4
ROCKFORD       CLOUDY    67  63  87 NE3       30.06S
PEORIA         MOCLDY    71  67  87 NE5       30.02S
$$

NOTE: "FAIR" INDICATES FEW OR NO CLOUDS BELOW 12,000 FEET WITH NO
SIGNIFICANT WEATHER AND/OR OBSTRUCTIONS TO VISIBILITY. WIND
SPEEDS ARE IN MILES-PER-HOUR.



USA.gov is the U.S. government's official web portal to all federal, state and local government web resources and services.